Regional Weather Roundup
Issued by NWS

Home | Current Version | Previous Version | Graphics & Text | Print | Product List | Glossary On
Versions: 1 2 3 4 5 6 7 8 9 10 11 12 13 14 15 16 17 18 19 20 21 22 23 24 25 26 27 28 29 30 31 32 33 34 35 36 37 38 39 40 41 42 43 44 45 46 47 48 49 50
000
ASUS43 KTOP 222008
RWRKS

WEATHER ROUNDUP FOR KANSAS
NATIONAL WEATHER SERVICE GOODLAND KS
300 PM CDT TUE JUL 22 2014

NOTE:  "FAIR" INDICATES FEW OR NO CLOUDS BELOW 12,000 FEET WITH NO
SIGNIFICANT WEATHER AND/OR OBSTRUCTIONS TO VISIBILITY.

KSZ001>006-013>018-027>032-041>047-222100-
NORTHWEST KANSAS

CITY           SKY/WX    TMP DP  RH WIND       PRES   REMARKS
GOODLAND       SUNNY     94  59  31 MISG      30.18S
HAYS           SUNNY     95  64  36 S5        30.09S HX  97
HILL CITY      SUNNY     99  63  30 SE5       30.09S HX 101
RUSSELL        MOSUNNY   95  69  42 E6        30.07S HX 100
$$

KSZ061>065-074>080-084>089-222100-
SOUTHWEST KANSAS

CITY           SKY/WX    TMP DP  RH WIND       PRES   REMARKS
DODGE CITY     MOSUNNY   94  66  39 S14G22    30.12R HX  97
ELKHART          N/A     92  65  41 S6          N/A
GARDEN CITY    SUNNY     92  67  43 S10       30.13S HX  95
GREAT BEND     MOSUNNY   97  70  41 S9G16     30.06S HX 103
LIBERAL        SUNNY     93  66  40 S9        30.15S HX  96
PRATT          SUNNY     95  64  36 S12       30.10S HX  97
$$

KSZ066>073-081>083-090>101-222100-
SOUTHEAST KANSAS

CITY           SKY/WX    TMP DP  RH WIND       PRES   REMARKS
CHANUTE        PTSUNNY   95  74  50 W7        30.05F HX 105
COFFEYVILLE    SUNNY     96  74  48 W7        30.05F HX 107
HUTCHINSON     MOSUNNY  100  69  36 S12       30.05F HX 106
MEDICINE LODGE   N/A     97  67  37 S10       30.05F HX 101
NEWTON         SUNNY     97  70  41 SW9       30.10S HX 103
PARSONS        MOSUNNY   97  74  47 W5        30.06F HX 108
WICHITA INTL   PTSUNNY   96  73  47 S10       30.05F HX 105
WICHITA JABRA  SUNNY     95  75  52 S7        30.06F HX 107
WICHITA MCCONL SUNNY     95  74  50 S7        30.06F HX 105
WINFIELD       SUNNY     94  77  57 S6        30.07F HX 108
$$

KSZ007>012-019>026-033>040-048>060-102>105-222100-
NORTHEAST KANSAS

CITY           SKY/WX    TMP DP  RH WIND       PRES   REMARKS
CONCORDIA      MOSUNNY   99  63  30 SW9       30.04S HX 101
EMPORIA        SUNNY     98  70  40 SW7       30.03F HX 105
LAWRENCE       PTSUNNY   96  73  47 SW8       30.01F HX 105
MANHATTAN      PTSUNNY  101  67  32 SW12      30.01S HX 106
MARYSVILLE     MOSUNNY  100  68  34 W5        30.02R HX 106
OLATHE IND     PTSUNNY   97  72  44 S10       30.03F HX 105
OLATHE EXE     PTSUNNY   92  75  57 S10       30.03S HX 103
SALINA         PTSUNNY  101  69  35 VRB6      30.04S HX 107
TOPEKA BILLARD PTSUNNY  101  68  34 W6        30.00F HX 106
TOPEKA FORBES  PTSUNNY  100  68  35 SW10      30.02F HX 105
$$


USA.gov is the U.S. government's official web portal to all federal, state and local government web resources and services.